SCP
0 0 0 0 0 0 0 0 0 0 0 0 0 0 0 0 0 0 0 0 0 -0 -0 -0 -0 -0 -0 -0 -0 -0 -0 -0
0 0 0 0 0 0 0 0 0 0 0 0 0 0 0 0 0 0 1 0 -0 -0 -0 -0 -0 -0 -0 -0 -0 -0 -0 -0
0 0 0 0 0 0 0 0 0 0 0 0 0 -0 -0 -0 1 0 1 0 0 -0 -0 -0 -0 -0 -0 -0 -0 -0 -0 -0
0 0 0 0 0 0 0 0 0 0 0 0 0 0 0 0 0 0 -0 0 0 0 0 0 -0 -0 -0 -0 -0 -0 -0 -0
0 0 0 0 0 0 0 0 0 0 0 0 0 0 0 0 1 0 -0 0 0 0 0 -0 -0 -0 -0 -0 0 0 0 0
0 0 0 0 0 0 0 0 0 0 0 -0 0 0 1 1 1 1 0 0 0 0 0 0 0 -0 -0 -0 -0 0 0 0
0 0 0 0 0 0 0 0 0 0 -0 -0 0 0 1 1 1 0 0 0 0 0 0 0 0 0 0 -0 -0 0 0 0
0 0 0 0 0 0 0 0 1 0 0 0 0 1 0 0 0 1 0 0 0 0 0 0 0 0 0 0 0 0 0 0
0 0 0 0 0 0 0 0 1 0 0 0 0 1 0 1 1 1 0 0 0 0 0 0 0 0 0 0 0 0 0 0
0 0 0 0 0 0 0 0 0 0 0 0 0 0 1 1 0 0 0 0 0 0 0 0 0 0 0 0 0 0 0 0
0 0 0 0 0 0 0 0 0 0 1 0 0 0 0 0 1 0 0 0 0 0 0 0 0 0 0 0 0 0 0 0
0 0 0 0 0 0 0 -0 0 0 0 0 0 1 0 0 0 0 0 0 0 0 0 0 0 0 0 0 0 0 0 0
0 0 0 0 0 0 0 0 0 0 1 1 1 0 0 0 0 0 0 0 0 0 0 0 0 0 0 0 0 0 0 0
0 0 0 0 0 -0 0 0 0 0 0 1 1 0 0 0 0 0 0 0 0 0 0 0 0 0 0 0 0 0 0 0
0 0 0 0 -0 -0 0 0 0 0 0 1 1 1 0 0 0 0 0 0 0 0 0 0 0 0 0 0 0 0 0 0
0 0 0 0 0 0 0 0 0 0 -0 1 1 1 1 0 0 0 0 0 0 0 0 0 0 0 0 0 0 0 0 0
0 0 0 0 0 0 0 0 0 1 1 2 2 1 1 0 0 0 0 0 0 0 0 0 0 0 1 1 1 1 0 0
0 0 0 0 0 0 0 0 0 1 2 1 2 1 1 0 0 0 0 0 0 0 0 0 0 0 1 1 1 2 0 0
0 0 0 0 0 0 0 0 0 2 2 1 1 1 1 0 0 0 0 0 0 0 0 0 0 0 0 0 0 1 1 0
0 0 0 0 0 0 0 0 0 1 1 1 1 1 1 1 0 0 0 0 0 0 0 0 0 0 0 0 0 0 0 0
Wind_Speed_500mb
10 9 16 11 11 17 7 8 9 7 7 5 8 6 5 11 55 67 71 66 61 53 44 37 34 40 43 43 42 40 39 36
8 16 13 13 11 11 8 4 5 5 5 11 10 8 4 32 56 64 69 65 60 54 46 39 35 39 42 42 41 40 37 35
5 11 7 9 12 6 3 7 7 7 6 10 13 9 14 30 58 62 70 66 61 55 48 40 36 38 41 40 38 38 36 33
15 7 10 5 32 5 5 11 8 9 9 14 20 9 9 40 60 68 64 66 62 57 50 43 37 35 38 37 36 35 34 31
6 9 3 6 27 12 8 15 21 14 6 8 20 17 16 46 61 67 66 67 63 60 53 45 38 34 33 36 34 33 31 29
7 8 8 11 25 25 52 40 55 37 14 12 36 29 32 49 56 66 65 66 63 61 58 52 45 37 33 33 33 32 30 26
7 9 8 4 12 17 15 34 20 23 23 16 24 34 39 59 65 70 66 65 66 65 61 55 48 43 38 34 33 34 31 28
14 11 7 5 5 10 5 4 16 28 27 24 26 39 53 69 77 75 69 67 66 65 62 58 53 48 44 40 35 33 32 30
8 7 5 5 13 13 11 7 17 31 37 39 36 46 57 69 74 76 72 67 66 65 64 60 57 51 48 42 36 32 30 32
4 2 3 4 13 18 15 19 19 19 40 43 44 62 67 72 79 76 71 67 65 65 65 61 55 51 48 42 37 33 29 29
4 16 21 18 20 19 37 50 31 18 30 48 60 66 60 68 70 68 68 63 60 63 63 58 53 50 45 39 36 31 28 25
4 17 20 7 11 8 25 42 46 37 48 59 71 69 66 67 71 69 64 58 54 51 50 50 47 44 40 36 32 28 23 20
13 14 11 4 20 46 55 39 30 20 40 65 70 62 63 63 71 71 65 59 54 51 48 43 39 35 30 26 22 19 16 17
9 21 15 15 46 15 51 41 63 59 30 51 63 66 58 62 66 69 67 61 52 50 48 43 39 32 25 19 17 15 14 12
7 24 13 32 4 14 37 35 54 61 37 57 64 65 61 59 63 65 62 55 54 50 48 47 43 35 27 24 20 16 18 19
9 14 27 22 24 22 6 37 48 54 34 60 71 71 72 67 64 58 54 55 57 55 54 51 42 41 35 30 29 20 19 26
14 15 7 30 15 24 47 13 25 44 48 57 65 68 69 72 66 60 58 60 60 55 53 51 51 49 47 44 37 24 18 25
20 23 12 16 19 30 14 12 29 45 51 68 61 68 70 71 66 64 62 57 55 52 50 51 51 45 33 32 33 32 25 30
10 21 13 9 10 11 15 19 25 38 65 78 81 78 73 68 61 57 53 55 57 54 53 46 47 44 32 36 38 26 23 27
17 10 7 8 8 12 16 18 20 32 51 66 77 75 74 63 58 51 50 50 52 48 44 35 33 36 50 48 18 5 21 32
Wind_Direction_500mb
150 170 204 204 222 238 267 305 177 171 193 246 246 350 246 187 159 170 174 175 174 173 174 174 174 173 171 168 168 167 166 164
146 207 244 191 212 215 165 206 193 184 213 242 259 288 340 177 168 165 174 176 175 175 177 176 175 174 171 169 168 168 168 167
220 222 232 235 168 124 134 167 231 192 226 257 260 295 316 179 172 169 175 178 177 179 179 178 177 175 174 171 169 170 171 170
218 197 185 219 234 141 223 252 269 280 236 245 237 237 241 182 177 176 178 180 179 181 181 180 181 178 178 175 173 172 174 175
190 219 284 203 220 242 224 260 248 232 214 244 214 186 185 182 182 180 181 182 182 183 183 183 184 182 180 181 180 179 178 178
196 150 185 206 174 211 217 241 252 253 241 194 212 176 173 176 181 181 186 186 184 186 186 185 185 185 185 186 188 189 187 185
130 137 212 255 201 212 234 221 226 227 251 269 199 183 178 179 180 184 189 190 188 188 189 188 188 189 190 192 194 196 197 195
199 184 218 256 264 331 212 259 223 248 232 239 213 201 187 185 183 187 190 190 191 191 191 192 192 193 197 201 201 203 203 206
187 143 66 247 300 299 311 271 223 211 202 221 223 203 194 185 190 190 192 191 194 195 194 196 197 199 203 206 209 212 213 213
260 241 307 278 316 322 267 247 300 250 240 218 213 201 192 190 191 192 192 196 197 199 200 201 202 206 210 212 217 222 225 225
219 269 275 264 257 260 267 253 250 266 245 222 212 198 193 196 195 195 195 199 203 206 206 205 207 213 217 221 228 232 235 237
281 257 261 190 271 259 251 265 259 257 243 220 212 197 196 198 196 197 198 201 203 207 207 209 212 217 222 229 234 238 242 244
211 220 240 270 268 235 251 252 268 258 222 211 201 198 202 198 198 197 199 201 200 197 198 203 209 216 222 230 233 230 232 233
249 176 219 189 256 217 243 233 254 260 237 205 198 199 203 199 199 200 201 199 197 195 192 191 195 198 199 198 210 209 197 197
270 191 190 195 43 193 237 222 239 253 251 195 192 196 202 202 200 199 200 201 198 196 194 193 191 184 179 189 199 201 216 227
234 205 221 237 232 303 299 218 225 247 230 179 187 193 199 203 203 198 199 203 200 201 202 199 194 189 192 188 194 220 247 241
284 280 267 239 254 227 261 264 237 228 159 160 169 183 191 200 202 198 200 199 202 206 207 207 201 202 204 205 192 210 247 247
288 264 195 277 246 228 250 230 217 171 159 159 160 169 178 191 196 203 203 199 205 205 208 209 210 210 218 210 209 196 211 258
262 324 285 281 287 202 224 233 204 184 173 174 171 167 174 182 190 195 204 209 209 209 215 216 219 219 241 246 246 233 242 312
255 292 259 6 264 237 193 216 168 163 168 171 174 178 180 183 187 190 198 209 213 214 219 220 229 235 247 248 272 206 126 328
Wind_Speed_850mb
10 9 16 11 11 17 7 8 9 7 7 5 8 6 5 11 55 67 71 66 61 53 44 37 34 40 43 43 42 40 39 36
8 16 13 13 11 11 8 4 5 5 5 11 10 8 4 32 56 64 69 65 60 54 46 39 35 39 42 42 41 40 37 35
5 11 7 9 12 6 3 7 7 7 6 10 13 9 14 30 58 62 70 66 61 55 48 40 36 38 41 40 38 38 36 33
15 7 10 5 32 5 5 11 8 9 9 14 20 9 9 40 60 68 64 66 62 57 50 43 37 35 38 37 36 35 34 31
6 9 3 6 27 12 8 15 21 14 6 8 20 17 16 46 61 67 66 67 63 60 53 45 38 34 33 36 34 33 31 29
7 8 8 11 25 25 52 40 55 37 14 12 36 29 32 49 56 66 65 66 63 61 58 52 45 37 33 33 33 32 30 26
7 9 8 4 12 17 15 34 20 23 23 16 24 34 39 59 65 70 66 65 66 65 61 55 48 43 38 34 33 34 31 28
14 11 7 5 5 10 5 4 16 28 27 24 26 39 53 69 77 75 69 67 66 65 62 58 53 48 44 40 35 33 32 30
8 7 5 5 13 13 11 7 17 31 37 39 36 46 57 69 74 76 72 67 66 65 64 60 57 51 48 42 36 32 30 32
4 2 3 4 13 18 15 19 19 19 40 43 44 62 67 72 79 76 71 67 65 65 65 61 55 51 48 42 37 33 29 29
4 16 21 18 20 19 37 50 31 18 30 48 60 66 60 68 70 68 68 63 60 63 63 58 53 50 45 39 36 31 28 25
4 17 20 7 11 8 25 42 46 37 48 59 71 69 66 67 71 69 64 58 54 51 50 50 47 44 40 36 32 28 23 20
13 14 11 4 20 46 55 39 30 20 40 65 70 62 63 63 71 71 65 59 54 51 48 43 39 35 30 26 22 19 16 17
9 21 15 15 46 15 51 41 63 59 30 51 63 66 58 62 66 69 67 61 52 50 48 43 39 32 25 19 17 15 14 12
7 24 13 32 4 14 37 35 54 61 37 57 64 65 61 59 63 65 62 55 54 50 48 47 43 35 27 24 20 16 18 19
9 14 27 22 24 22 6 37 48 54 34 60 71 71 72 67 64 58 54 55 57 55 54 51 42 41 35 30 29 20 19 26
14 15 7 30 15 24 47 13 25 44 48 57 65 68 69 72 66 60 58 60 60 55 53 51 51 49 47 44 37 24 18 25
20 23 12 16 19 30 14 12 29 45 51 68 61 68 70 71 66 64 62 57 55 52 50 51 51 45 33 32 33 32 25 30
10 21 13 9 10 11 15 19 25 38 65 78 81 78 73 68 61 57 53 55 57 54 53 46 47 44 32 36 38 26 23 27
17 10 7 8 8 12 16 18 20 32 51 66 77 75 74 63 58 51 50 50 52 48 44 35 33 36 50 48 18 5 21 32
Wind_Direction_850mb
150 170 204 204 222 238 267 305 177 171 193 246 246 350 246 187 159 170 174 175 174 173 174 174 174 173 171 168 168 167 166 164
146 207 244 191 212 215 165 206 193 184 213 242 259 288 340 177 168 165 174 176 175 175 177 176 175 174 171 169 168 168 168 167
220 222 232 235 168 124 134 167 231 192 226 257 260 295 316 179 172 169 175 178 177 179 179 178 177 175 174 171 169 170 171 170
218 197 185 219 234 141 223 252 269 280 236 245 237 237 241 182 177 176 178 180 179 181 181 180 181 178 178 175 173 172 174 175
190 219 284 203 220 242 224 260 248 232 214 244 214 186 185 182 182 180 181 182 182 183 183 183 184 182 180 181 180 179 178 178
196 150 185 206 174 211 217 241 252 253 241 194 212 176 173 176 181 181 186 186 184 186 186 185 185 185 185 186 188 189 187 185
130 137 212 255 201 212 234 221 226 227 251 269 199 183 178 179 180 184 189 190 188 188 189 188 188 189 190 192 194 196 197 195
199 184 218 256 264 331 212 259 223 248 232 239 213 201 187 185 183 187 190 190 191 191 191 192 192 193 197 201 201 203 203 206
187 143 66 247 300 299 311 271 223 211 202 221 223 203 194 185 190 190 192 191 194 195 194 196 197 199 203 206 209 212 213 213
260 241 307 278 316 322 267 247 300 250 240 218 213 201 192 190 191 192 192 196 197 199 200 201 202 206 210 212 217 222 225 225
219 269 275 264 257 260 267 253 250 266 245 222 212 198 193 196 195 195 195 199 203 206 206 205 207 213 217 221 228 232 235 237
281 257 261 190 271 259 251 265 259 257 243 220 212 197 196 198 196 197 198 201 203 207 207 209 212 217 222 229 234 238 242 244
211 220 240 270 268 235 251 252 268 258 222 211 201 198 202 198 198 197 199 201 200 197 198 203 209 216 222 230 233 230 232 233
249 176 219 189 256 217 243 233 254 260 237 205 198 199 203 199 199 200 201 199 197 195 192 191 195 198 199 198 210 209 197 197
270 191 190 195 43 193 237 222 239 253 251 195 192 196 202 202 200 199 200 201 198 196 194 193 191 184 179 189 199 201 216 227
234 205 221 237 232 303 299 218 225 247 230 179 187 193 199 203 203 198 199 203 200 201 202 199 194 189 192 188 194 220 247 241
284 280 267 239 254 227 261 264 237 228 159 160 169 183 191 200 202 198 200 199 202 206 207 207 201 202 204 205 192 210 247 247
288 264 195 277 246 228 250 230 217 171 159 159 160 169 178 191 196 203 203 199 205 205 208 209 210 210 218 210 209 196 211 258
262 324 285 281 287 202 224 233 204 184 173 174 171 167 174 182 190 195 204 209 209 209 215 216 219 219 241 246 246 233 242 312
255 292 259 6 264 237 193 216 168 163 168 171 174 178 180 183 187 190 198 209 213 214 219 220 229 235 247 248 272 206 126 328